Weather History for GMME - October, 2013

Change the Weather History Date:

Wednesday, October 2, 2013

  Actual Average Record
Temperature  
Mean Temperature 71 °F -  
Max Temperature 79 °F 73 °F 84 °F (2011)
Min Temperature 63 °F 57 °F 53 °F (1996)
Cooling Degree Days 6    
Growing Degree Days 21 (Base 50)    
Moisture  
Dew Point 65 °F    
Average Humidity 84    
Maximum Humidity 94    
Minimum Humidity 57    
Precipitation  
Precipitation 0.00 in 0.06 in - ()
Sea Level Pressure  
Sea Level Pressure 29.86 in    
Wind  
Wind Speed 1 mph ()    
Max Wind Speed 10 mph    
Max Gust Speed -    
Visibility 3.9 miles    
Events Fog    
Averages and records for this station are not official NWS values.
T = Trace of Precipitation, MM = Missing Value Source: Averaged Metar Reports

Daily Weather History Graph

Daily Weather History Graph

Search for Another Location

Airport or City:

Trip Planner

Search our weather history database for the weather conditions in past years. The results will help you decide how hot, cold, wet, or windy it might be!

Date:

Astronomy

Oct. 02, 2013 Rise Set
Actual Time 7:22 AM WEST 7:09 PM WEST
Civil Twilight 6:57 AM WEST 7:34 PM WEST
Nautical Twilight 6:28 AM WEST 8:03 PM WEST
Astronomical Twilight 5:59 AM WEST 8:32 PM WEST
Moon 4:47 AM WEST (10/2) 5:34 PM WEST (10/2)
Length of Visible Light 12h 37m
Length of Day
11h 47m
Waning Crescent, 7% of the Moon is Illuminated
Oct 2
Waning Crescent
Oct 5
New
Oct 12
First Quarter
Oct 19
Full
Oct 27
Last Quarter

Hourly Weather History & Observations

Time (WEST) Temp. Dew Point Humidity Pressure Visibility Wind Dir Wind Speed Gust Speed Precip Events Conditions
12:00 AM 66.2 °F 62.6 °F 88% 29.92 in 3.7 mi Calm Calm - N/A   Scattered Clouds
12:30 AM 68.0 °F 66.2 °F 94% 29.92 in 3.7 mi Calm Calm - N/A   Scattered Clouds
1:00 AM 67 °F 64 °F 89% 29.91 in 4 mi Calm Calm - -   Partly Cloudy
1:00 AM 66.2 °F 64.4 °F 94% 29.92 in 3.7 mi Calm Calm - N/A   Scattered Clouds
1:30 AM 66.2 °F 64.4 °F 94% 29.89 in 3.7 mi Calm Calm - N/A   Scattered Clouds
2:00 AM 66.2 °F 64.4 °F 94% 29.89 in 3.1 mi Calm Calm - N/A   Scattered Clouds
2:30 AM 66.2 °F 64.4 °F 94% 29.89 in 3.1 mi Calm Calm - N/A   Scattered Clouds
3:00 AM 66.2 °F 64.4 °F 94% 29.86 in 3.1 mi Calm Calm - N/A   Scattered Clouds
3:30 AM 66.2 °F 64.4 °F 94% 29.86 in 3.1 mi Calm Calm - N/A   Scattered Clouds
4:00 AM 66 °F 64 °F 93% 29.86 in 3 mi Calm Calm - -   Partly Cloudy
4:00 AM 66.2 °F 64.4 °F 94% 29.86 in 3.1 mi Calm Calm - N/A   Scattered Clouds
4:30 AM 66.2 °F 64.4 °F 94% 29.86 in 3.1 mi Calm Calm - N/A   Scattered Clouds
5:00 AM 64.4 °F 62.6 °F 94% 29.86 in 3.1 mi Calm Calm - N/A   Scattered Clouds
5:30 AM 64.4 °F 62.6 °F 94% 29.86 in 3.1 mi Calm Calm - N/A   Scattered Clouds
6:00 AM 64.4 °F 62.6 °F 94% 29.86 in 3.1 mi Calm Calm - N/A   Scattered Clouds
6:30 AM 64.4 °F 62.6 °F 94% 29.86 in 3.1 mi Calm Calm - N/A   Scattered Clouds
7:00 AM 64 °F 62 °F 93% 29.86 in 3 mi Calm Calm - -   Partly Cloudy
7:00 AM 64.4 °F 62.6 °F 94% 29.86 in 3.1 mi Calm Calm - N/A   Scattered Clouds
7:18 AM 66.2 °F 64.4 °F 94% 29.86 in 1.2 mi Calm Calm - N/A   Mostly Cloudy
7:30 AM 66.2 °F 64.4 °F 94% 29.86 in 1.2 mi Calm Calm - N/A   Mostly Cloudy
7:31 AM 66.2 °F 64.4 °F 94% 29.86 in 0.5 mi Calm Calm - N/A Fog Fog
8:00 AM 66.2 °F 64.4 °F 94% 29.86 in 0.5 mi Calm Calm - N/A Fog Fog
8:30 AM 68.0 °F 66.2 °F 94% 29.86 in 0.5 mi Calm Calm - N/A Fog Fog
8:40 AM 68.0 °F 66.2 °F 94% 29.86 in 5.0 mi Calm Calm - N/A   Scattered Clouds
9:00 AM 69.8 °F 68.0 °F 94% 29.86 in 5.0 mi Calm Calm - N/A   Scattered Clouds
9:30 AM 69.8 °F 68.0 °F 94% 29.86 in 5.0 mi Calm Calm - N/A   Scattered Clouds
10:00 AM 73 °F 66 °F 73% 29.87 in 5 mi Calm Calm - -   Partly Cloudy
10:00 AM 73.4 °F 68.0 °F 83% 29.86 in 5.0 mi Calm Calm - N/A   Scattered Clouds
11:00 AM 75.2 °F 66.2 °F 73% 29.86 in 5.0 mi North 5.8 mph - N/A   Scattered Clouds
11:30 AM 75.2 °F 66.2 °F 73% 29.86 in 5.0 mi NNW 5.8 mph - N/A   Scattered Clouds
12:00 PM 77.0 °F 64.4 °F 65% 29.86 in 5.0 mi North 5.8 mph - N/A   Scattered Clouds
12:30 PM 77.0 °F 66.2 °F 69% 29.83 in 5.0 mi NW 8.1 mph - N/A   Scattered Clouds
1:00 PM 77 °F 65 °F 58% 29.83 in 5 mi NW 8.1 mph - -   Partly Cloudy
1:00 PM 77.0 °F 64.4 °F 65% 29.83 in 5.0 mi NW 8.1 mph - N/A   Scattered Clouds
1:30 PM 78.8 °F 64.4 °F 61% 29.83 in 5.0 mi NNW 8.1 mph - N/A   Scattered Clouds
2:00 PM 77.0 °F 64.4 °F 65% 29.83 in 5.0 mi NW 9.2 mph - N/A   Scattered Clouds
2:30 PM 78.8 °F 62.6 °F 57% 29.80 in 5.0 mi NNW 9.2 mph - N/A   Scattered Clouds
3:00 PM 77.0 °F 66.2 °F 69% 29.80 in 5.0 mi NW 10.4 mph - N/A   Scattered Clouds
4:00 PM 77 °F 65 °F 59% 29.81 in 4 mi NW 10.4 mph - -   Partly Cloudy
6:00 PM 73.4 °F 66.2 °F 78% 29.83 in 5.0 mi WNW 6.9 mph - N/A   Scattered Clouds
7:00 PM 74 °F 66 °F 70% 29.85 in 5 mi NW 6.9 mph - -   Mostly Cloudy
7:00 PM 73.4 °F 66.2 °F 78% 29.83 in 5.0 mi NW 6.9 mph - N/A   Scattered Clouds
8:30 PM 73.4 °F 66.2 °F 78% 29.83 in 5.0 mi Calm Calm - N/A   Scattered Clouds
9:00 PM 71.6 °F 66.2 °F 83% 29.86 in 5.0 mi Calm Calm - N/A   Scattered Clouds
10:00 PM 70 °F 66 °F 83% 29.88 in 5 mi Calm Calm - -   Mostly Cloudy
10:00 PM 69.8 °F 66.2 °F 88% 29.89 in 5.0 mi Calm Calm - N/A   Scattered Clouds
11:00 PM 69.8 °F 66.2 °F 88% 29.89 in 5.0 mi Calm Calm - N/A   Scattered Clouds